Weather History for Jefferson, NC

Change the Weather History Date:

Tuesday, April 29, 2014

  Actual Average Record
Temperature  
Mean Temperature 50 °F -  
Max Temperature 53 °F 66 °F 82 °F (1970)
Min Temperature 46 °F 41 °F 25 °F (1992)
Degree Days  
Heating Degree Days 16    
Moisture  
Dew Point 49 °F    
Average Humidity 97    
Maximum Humidity 97    
Minimum Humidity 95    
Precipitation  
Precipitation 0.60 in - - ()
Sea Level Pressure  
Sea Level Pressure 29.96 in    
Wind  
Wind Speed 2 mph (SSE)    
Max Wind Speed 5 mph    
Max Gust Speed -    
Visibility 1 miles    
Events Fog , Rain    
Averages and records for this station are not official NWS values.
T = Trace of Precipitation, MM = Missing Value Source: NWS Daily Summary

Daily Weather History Graph

Daily Weather History Graph

Search for Another Location

Airport:

Trip Planner

Search our weather history database for the weather conditions in past years. The results will help you decide how hot, cold, wet, or windy it might be!

Date:

Astronomy

Apr. 29, 2014 Rise Set
Actual Time 6:34 AM EDT 8:11 PM EDT
Civil Twilight 6:07 AM EDT 8:39 PM EDT
Nautical Twilight 5:34 AM EDT 9:12 PM EDT
Astronomical Twilight 4:59 AM EDT 9:47 PM EDT
Moon 6:51 AM EDT (4/29) 8:50 PM EDT (4/29)
Length of Visible Light 14h 32m
Length of Day
13h 37m
New Moon, 0% of the Moon is Illuminated
Apr 29
New Moon
May 6
First Quarter
May 14
Full
May 21
Last Quarter
May 28
New

Hourly Weather History & Observations

Time (EDT) Temp. Dew Point Humidity Pressure Visibility Wind Dir Wind Speed Gust Speed Precip Events Conditions
12:15 AM 51.3 °F 50.2 °F 96% 29.95 in 2.5 mi Calm Calm - N/A   Overcast
12:35 AM 51.4 °F 50.4 °F 96% 29.95 in 2.5 mi Calm Calm - N/A   Overcast
12:55 AM 51.4 °F 50.4 °F 96% 29.93 in 1.8 mi ESE 3.5 mph - N/A   Overcast
1:15 AM 51.8 °F 50.9 °F 97% 29.92 in 3.0 mi Calm Calm - N/A   Overcast
1:30 AM 51.8 °F 50.9 °F 97% 29.92 in 3.0 mi ESE 3.5 mph - N/A   Overcast
1:55 AM 52.2 °F 51.1 °F 96% 29.92 in 4.0 mi ESE 4.6 mph - N/A Rain Rain
2:15 AM 52.3 °F 51.3 °F 96% 29.93 in 4.0 mi Calm Calm - N/A Rain Rain
2:35 AM 52.2 °F 51.1 °F 96% 29.90 in 1.5 mi East 3.5 mph - 0.01 in Rain Heavy Rain
2:55 AM 52.7 °F 51.4 °F 95% 29.90 in 1.8 mi West 3.5 mph - 0.04 in Rain Rain
3:15 AM 52.7 °F 51.6 °F 96% 29.92 in 0.5 mi Calm Calm - 0.05 in Rain Heavy Rain
3:35 AM 52.7 °F 51.4 °F 95% 29.92 in 0.5 mi Calm Calm - 0.12 in Rain Rain
3:55 AM 52.9 °F 51.8 °F 96% 29.91 in 0.5 mi Calm Calm - 0.18 in Rain Heavy Rain
4:15 AM 53.1 °F 52.0 °F 96% 29.90 in 0.8 mi Calm Calm - 0.07 in Rain Rain
4:35 AM 53.2 °F 52.2 °F 96% 29.90 in 0.2 mi SSE 3.5 mph - 0.14 in Rain Rain
5:15 AM 51.8 °F 50.5 °F 95% 29.90 in 0.2 mi SSE 4.6 mph - 0.08 in Rain Light Rain
5:35 AM 50.9 °F 49.6 °F 95% 29.90 in 7.0 mi SSE 4.6 mph - 0.08 in   Overcast
5:55 AM 50.9 °F 49.8 °F 96% 29.90 in 1.0 mi South 4.6 mph - 0.08 in Rain Light Rain
6:15 AM 50.4 °F 49.3 °F 96% 29.91 in 0.2 mi South 3.5 mph - N/A Fog Fog
6:35 AM 50.0 °F 48.7 °F 95% 29.91 in 0.2 mi Calm Calm - N/A Rain Light Rain
6:55 AM 49.5 °F 48.6 °F 97% 29.92 in 0.2 mi South 4.6 mph - N/A Rain Rain
7:15 AM 49.1 °F 48.2 °F 97% 29.93 in 1.0 mi South 4.6 mph - N/A Rain Light Rain
7:35 AM 48.7 °F 47.7 °F 96% 29.93 in 2.0 mi Calm Calm - 0.01 in Rain Rain
8:15 AM 48.4 °F 47.3 °F 96% 29.93 in 1.0 mi Calm Calm - 0.09 in Rain Heavy Rain
8:35 AM 48.2 °F 47.1 °F 96% 29.93 in 0.5 mi Calm Calm - 0.12 in Rain Light Rain
8:55 AM 48.0 °F 46.8 °F 95% 29.93 in 2.5 mi SSE 4.6 mph - 0.13 in Rain Light Rain
9:15 AM 47.7 °F 46.8 °F 97% 29.94 in 0.2 mi South 3.5 mph - N/A Rain Light Rain
9:35 AM 47.3 °F 46.4 °F 97% 29.95 in 0.2 mi SSE 3.5 mph - 0.02 in Rain Light Rain
9:55 AM 47.3 °F 46.2 °F 96% 29.94 in 0.2 mi SE 4.6 mph - 0.02 in   Drizzle
10:15 AM 46.8 °F 45.9 °F 97% 29.96 in 0.5 mi SSE 3.5 mph - N/A   Light Drizzle
10:35 AM 46.6 °F 45.7 °F 97% 29.96 in 0.5 mi Calm Calm - N/A Rain Light Rain
11:15 AM 46.9 °F 45.9 °F 96% 29.97 in 0.2 mi SSE 3.5 mph - N/A   Light Drizzle
11:35 AM 47.8 °F 46.8 °F 96% 29.96 in 0.5 mi Calm Calm - N/A Fog Fog
11:55 AM 47.5 °F 46.6 °F 97% 29.97 in 0.2 mi South 3.5 mph - N/A Rain Heavy Rain
12:15 PM 47.5 °F 46.6 °F 97% 29.97 in 0.2 mi SE 3.5 mph - N/A Rain Light Rain
12:35 PM 47.5 °F 46.6 °F 97% 29.96 in 0.2 mi SE 3.5 mph - N/A   Drizzle
12:55 PM 48.0 °F 46.9 °F 96% 29.97 in 0.2 mi Calm Calm - N/A Fog Fog
1:15 PM 48.4 °F 47.5 °F 97% 29.96 in 0.2 mi Calm Calm - N/A Fog Fog
1:30 PM 48.7 °F 47.8 °F 97% 29.96 in 0.2 mi Calm Calm - N/A Fog Fog
1:55 PM 49.3 °F 48.4 °F 97% 29.96 in 0.2 mi Calm Calm - N/A Fog Fog
2:15 PM 49.6 °F 48.7 °F 97% 29.96 in 0.2 mi Calm Calm - N/A Fog Fog
2:35 PM 50.0 °F 49.1 °F 97% 29.95 in 0.2 mi SSE 3.5 mph - N/A Fog Fog
2:55 PM 49.8 °F 48.9 °F 97% 29.96 in 0.2 mi SSE 3.5 mph - N/A Fog Fog
3:15 PM 49.5 °F 48.6 °F 97% 29.98 in 0.2 mi Calm Calm - N/A Fog Fog
3:35 PM 49.6 °F 48.7 °F 97% 29.98 in 0.2 mi Calm Calm - N/A   Drizzle
3:55 PM 49.3 °F 48.4 °F 97% 29.98 in 0.2 mi Calm Calm - N/A   Drizzle
4:15 PM 49.8 °F 48.9 °F 97% 29.97 in 0.2 mi Calm Calm - N/A   Drizzle
4:35 PM 49.5 °F 48.6 °F 97% 29.99 in 0.2 mi Calm Calm - N/A Fog Fog
4:55 PM 50.2 °F 49.3 °F 97% 29.99 in 0.2 mi Calm Calm - N/A Rain Light Rain
5:15 PM 50.2 °F 49.3 °F 97% 29.98 in 0.2 mi SSE 3.5 mph - N/A Fog Fog
5:35 PM 51.1 °F 50.2 °F 97% 29.97 in 0.2 mi Calm Calm - N/A Fog Fog
5:55 PM 50.9 °F 50.0 °F 97% 29.98 in 0.2 mi Calm Calm - N/A Fog Fog
6:35 PM 51.8 °F 50.9 °F 97% 29.97 in 0.2 mi Calm Calm - N/A Fog Fog
6:55 PM 51.8 °F 50.9 °F 97% 29.96 in 0.2 mi Calm Calm - N/A Fog Fog
7:15 PM 51.8 °F 50.9 °F 97% 29.97 in 0.2 mi South 3.5 mph - N/A Fog Fog
7:35 PM 51.8 °F 50.7 °F 96% 29.97 in 0.2 mi SSE 3.5 mph - N/A Fog Fog
7:55 PM 51.4 °F 50.5 °F 97% 29.98 in 0.2 mi Calm Calm - N/A Fog Fog
8:15 PM 51.1 °F 50.2 °F 97% 29.99 in 0.2 mi SSE 3.5 mph - N/A Fog Fog
8:35 PM 50.4 °F 49.5 °F 97% 30.00 in 0.2 mi Calm Calm - N/A Fog Fog
8:55 PM 50.2 °F 49.3 °F 97% 30.00 in 0.2 mi Calm Calm - N/A Fog Fog
9:15 PM 49.6 °F 48.7 °F 97% 30.00 in 0.2 mi SE 3.5 mph - N/A Fog Fog
9:35 PM 49.1 °F 48.2 °F 97% 30.02 in 0.2 mi Calm Calm - N/A Fog Fog
9:55 PM 49.1 °F 48.2 °F 97% 30.03 in 0.2 mi Calm Calm - N/A Fog Fog
10:15 PM 48.6 °F 47.7 °F 97% 30.03 in 0.2 mi SSE 3.5 mph - N/A   Light Drizzle
10:35 PM 48.6 °F 47.7 °F 97% 30.04 in 0.2 mi Calm Calm - N/A   Light Drizzle
10:55 PM 48.9 °F 48.0 °F 97% 30.04 in 0.2 mi Calm Calm - N/A Fog Fog
11:15 PM 49.1 °F 48.2 °F 97% 30.04 in 0.2 mi Calm Calm - N/A Rain Light Rain
11:35 PM 49.1 °F 48.2 °F 97% 30.05 in 0.2 mi Calm Calm - N/A   Light Drizzle
11:55 PM 49.1 °F 48.2 °F 97% 30.05 in 0.2 mi Calm Calm - N/A   Drizzle